Погода в Рудничном

Россия / Кировская область     59°36′59″N   52°28′20″E
темп.,
°C
ветер,
м/с
пор.,
м/с
влажн.,
%
обл.,
%
осадки,
мм/ч
давл.,
гПа
погр.,
м
20 апреля, вт
вт2000:00−5юв11935 0.0 103610
03:00−5юз11905 0.0 103711
06:000зюз12645 0.0 1036107
09:00+5зсз12435 0.0 1035835
12:00+8з12385 0.0 10341185
15:00+8зсз12382 0.0 10331248
18:00+5ююв00655 0.0 103210
21:000ю11775 0.0 103310
21 апреля, ср
ср2100:00−1вюв22783 0.0 103212
03:00−1ююв11802 0.0 103212
06:00+2юв25660 0.0 1032151
09:00+8юв464254 0.0 1030818
12:00+11ююв573899 0.0 10281343
15:00+11ююв594373 0.0 10261303
18:00+8ююв51249100 0.0 1025617
21:00+7ююв51354100 0.0 1024771
22 апреля, чт
чт2200:00+6ю51354100 0.0 10231190
03:00+3ююв61495100 0.5 1023902
06:00+3ю51396100 1.2 1023748
09:00+3ю51296100 1.4 1024697
12:00+3ю51296100 0.2 1024677
15:00+3ю41097100 0.8 1024758
18:00+3ю41197100 0.2 1024798
21:00+4ю41196100 0.3 1025563
23 апреля, пт
пт2300:00+4ю41095100 0.0 1024490
03:00+4ю3896100 0.1 1024330
06:00+4ю31095100 0.6 1024548
09:00+5ю3894100 1.0 1025571
12:00+6ююз3589100 0.0 1025545
15:00+7ю3585100 0.1 1025606
18:00+6ююв2491100 0.1 1025136
21:00+5ююв2497100 0.2 1025106
24 апреля, сб
сб2400:00+5ююв2497100 0.2 1025116
03:00+5ююв2697100 0.2 1024169
06:00+5юв2694100 0.0 1024250
09:00+8юв357478 0.0 1022659
12:00+10вюв3457100 0.1 10201559
15:00+9в2564100 0.1 1019718
18:00+7вюв2675100 0.0 1018256
21:00+6в2683100 0.0 1017196